FW0441 Weather Reports


time (UTC)temp
C
wind
direction
speed
KPH
gust
KPH
rain 1hr
cm
rain 24hr
cm
rain mn
cm
humidity
%
barometer
mb
20240518203817 26 236 4.8 11.3 0.00 0.58 0.25 46 1006.3
20240518203317 26 355 4.8 9.7 0.00 0.58 0.25 46 1006.2
20240518202819 26 355 3.2 12.9 0.00 0.58 0.25 48 1006.0
20240518202318 27 327 1.6 12.9 0.00 0.58 0.25 48 1006.1
20240518201818 27 266 3.2 8.0 0.00 0.58 0.25 50 1006.1
20240518201317 26 238 3.2 8.0 0.00 0.58 0.25 48 1006.0
20240518200817 26 335 3.2 8.0 0.00 0.58 0.25 48 1006.1
20240518200313 26 59 3.2 8.0 0.00 0.58 0.25 49 1006.1
20240518195814 26 9 3.2 8.0 0.00 0.58 0.25 48 1006.1
20240518195543 26 153 3.2 8.0 0.00 0.58 0.25 50 1006.0
20240518194813 26 0 3.2 9.7 0.00 0.58 0.25 52 1005.8
20240518194310 26 321 3.2 11.3 0.00 0.58 0.25 50 1006.0
20240518194039 27 227 3.2 11.3 0.00 0.58 0.25 49 1005.6
20240518193309 27 195 3.2 9.7 0.00 0.58 0.25 49 1005.7
20240518192808 27 244 3.2 14.5 0.00 0.58 0.25 50 1005.6
20240518192539 26 221 3.2 14.5 0.00 0.58 0.25 53 1005.5
20240518192039 26 53 3.2 9.7 0.00 0.58 0.25 52 1005.4
20240518191310 27 35 3.2 12.9 0.00 0.58 0.25 55 1005.3
20240518191040 27 26 3.2 12.9 0.00 0.58 0.25 51 1005.2
20240518190305 27 171 3.2 12.9 0.00 0.58 0.25 51 1005.1
20240518185805 26 193 3.2 12.9 0.00 0.58 0.25 51 1005.1
20240518185307 26 279 3.2 6.4 0.00 0.58 0.25 54 1005.1
20240518184805 26 222 3.2 9.7 0.00 0.58 0.25 53 1005.2
20240518184536 26 205 3.2 9.7 0.00 0.58 0.25 54 1005.1
20240518183805 26 209 3.2 14.5 0.00 0.58 0.25 56 1005.0
20240518183305 26 181 4.8 14.5 0.00 0.58 0.25 54 1004.9
20240518182806 26 188 4.8 14.5 0.00 0.58 0.25 53 1004.9
20240518182535 26 232 3.2 9.7 0.00 0.58 0.25 55 1004.6
20240518181803 26 237 1.6 4.8 0.00 0.58 0.25 56 1004.6
20240518181305 26 210 3.2 11.3 0.00 0.58 0.25 59 1004.6
20240518180804 26 209 4.8 11.3 0.00 0.58 0.25 55 1004.4
20240518180537 26 207 3.2 11.3 0.00 0.58 0.25 59 1004.3
20240518175803 26 242 4.8 11.3 0.00 0.58 0.25 56 1004.3
20240518175304 26 271 4.8 12.9 0.00 0.58 0.25 60 1004.4
20240518175037 26 190 1.6 12.9 0.00 0.58 0.25 56 1004.5
20240518174303 26 229 1.6 8.0 0.00 0.58 0.25 59 1004.4
20240518173803 25 283 1.6 6.4 0.00 0.58 0.25 61 1004.3
20240518173302 26 205 1.6 4.8 0.00 0.58 0.25 58 1004.3
20240518172803 26 206 3.2 9.7 0.00 0.58 0.25 61 1004.3
20240518172301 26 205 4.8 14.5 0.00 0.58 0.25 60 1004.3
20240518171802 26 209 4.8 14.5 0.00 0.58 0.25 57 1004.1
20240518171302 26 196 3.2 11.3 0.00 0.58 0.25 60 1004.1
20240518171032 25 211 4.8 11.3 0.00 0.58 0.25 59 1003.9
20240518170302 25 217 4.8 11.3 0.00 0.58 0.25 59 1004.1
20240518165802 25 206 4.8 17.7 0.00 0.58 0.25 60 1004.0
20240518165305 25 205 3.2 8.0 0.00 0.58 0.25 61 1003.9
20240518165259 25 209 4.8 17.7 0.00 0.58 0.25 60 1004.1
20240518164259 25 207 3.2 8.0 0.00 0.58 0.25 61 1003.9
20240518163800 25 215 3.2 12.9 0.00 0.58 0.25 61 1003.8
20240518163529 25 182 3.2 12.9 0.00 0.58 0.25 58 1003.9
20240518162759 25 178 3.2 9.7 0.00 0.58 0.25 61 1003.7
20240518162257 25 270 4.8 11.3 0.00 0.58 0.25 61 1003.7
20240518161757 24 209 6.4 16.1 0.00 0.58 0.25 61 1003.6
20240518161528 24 185 6.4 16.1 0.00 0.58 0.25 62 1003.5
20240518160758 24 217 4.8 16.1 0.00 0.58 0.25 61 1003.7
20240518160257 24 221 4.8 12.9 0.00 0.58 0.25 62 1003.4
20240518155757 24 211 6.4 12.9 0.00 0.58 0.25 63 1003.5
20240518155257 24 202 6.4 17.7 0.00 0.58 0.25 61 1003.4
20240518154757 24 220 4.8 17.7 0.00 0.58 0.25 61 1003.3
20240518154259 24 235 4.8 14.5 0.00 0.58 0.25 64 1003.2
20240518153757 23 196 4.8 16.1 0.00 0.58 0.25 63 1003.2
20240518153530 23 221 4.8 16.1 0.00 0.58 0.25 64 1003.0
20240518152757 23 196 3.2 12.9 0.00 0.58 0.25 66 1003.0
20240518152254 23 209 3.2 11.3 0.00 0.58 0.25 68 1003.1
20240518151754 23 199 4.8 11.3 0.00 0.58 0.25 65 1003.0
20240518151256 23 187 4.8 11.3 0.00 0.58 0.25 66 1002.9
20240518150754 23 192 4.8 11.3 0.00 0.58 0.25 66 1002.8
20240518150254 23 207 3.2 12.9 0.00 0.58 0.25 66 1002.8
20240518145753 23 221 4.8 14.5 0.00 0.58 0.25 67 1002.9
20240518145252 23 191 4.8 14.5 0.00 0.58 0.25 65 1003.0
20240518144753 23 161 4.8 12.9 0.00 0.58 0.25 67 1003.0
20240518144254 22 195 4.8 12.9 0.00 0.58 0.25 67 1002.9
20240518143752 22 239 4.8 9.7 0.00 0.58 0.25 68 1002.9
20240518143251 22 196 4.8 14.5 0.00 0.58 0.25 68 1003.0
20240518142749 22 196 4.8 14.5 0.00 0.58 0.25 68 1002.9
20240518142250 22 197 4.8 12.9 0.00 0.58 0.25 70 1002.9
20240518141750 21 204 4.8 11.3 0.00 0.58 0.25 69 1003.0
20240518141251 21 204 3.2 9.7 0.00 0.58 0.25 70 1003.0
20240518140749 21 190 3.2 11.3 0.00 0.58 0.25 70 1003.0
20240518140521 21 231 3.2 11.3 0.00 0.58 0.25 71 1003.0
20240518135750 21 251 3.2 12.9 0.00 0.58 0.25 72 1002.9
20240518135522 21 211 3.2 12.9 0.00 0.58 0.25 72 1002.8
20240518134750 21 197 3.2 9.7 0.00 0.58 0.25 74 1002.9
20240518134249 20 194 3.2 11.3 0.00 0.58 0.25 75 1003.0
20240518133749 20 192 3.2 11.3 0.00 0.58 0.25 76 1003.1
20240518133251 20 204 3.2 11.3 0.00 0.58 0.25 77 1003.1
20240518132748 19 175 3.2 9.7 0.00 0.58 0.25 77 1003.1
20240518132250 19 192 3.2 9.7 0.00 0.58 0.25 78 1003.1
20240518131749 19 184 1.6 6.4 0.00 0.58 0.25 79 1003.0
20240518131249 19 180 1.6 6.4 0.00 0.58 0.25 79 1003.1
20240518130750 19 172 3.2 14.5 0.00 0.58 0.25 79 1003.4
20240518130250 19 168 3.2 14.5 0.00 0.58 0.25 79 1003.3
20240518125748 19 167 3.2 8.0 0.00 0.58 0.25 79 1003.3
20240518125251 18 186 3.2 8.0 0.00 0.58 0.25 81 1003.1
20240518124750 18 186 3.2 12.9 0.00 0.58 0.25 81 1003.2
20240518124246 18 184 3.2 12.9 0.00 0.58 0.25 81 1003.2
20240518123748 18 161 3.2 9.7 0.00 0.58 0.25 82 1003.2
20240518123246 18 173 3.2 8.0 0.00 0.58 0.25 82 1003.1
20240518123017 18 148 3.2 8.0 0.00 0.58 0.25 83 1003.0
20240518122245 17 170 3.2 9.7 0.00 0.58 0.25 83 1003.0
20240518121743 17 173 3.2 9.7 0.00 0.58 0.25 84 1003.0
20240518121244 17 157 3.2 8.0 0.00 0.58 0.25 84 1003.1
20240518120744 17 158 1.6 8.0 0.00 0.58 0.25 85 1003.2
20240518120242 17 163 1.6 9.7 0.00 0.58 0.25 85 1003.1
20240518115740 17 153 3.2 9.7 0.00 0.58 0.25 85 1003.1
20240518115240 17 170 3.2 9.7 0.03 0.58 0.25 85 1003.0
20240518114740 17 168 3.2 9.7 0.18 0.58 0.25 85 1003.0
20240518114239 17 207 3.2 8.0 0.20 0.58 0.25 85 1002.9
20240518113739 17 178 3.2 8.0 0.23 0.58 0.25 85 1003.0
20240518113509 17 173 3.2 11.3 0.23 0.58 0.25 85 1002.7
20240518112738 17 175 4.8 11.3 0.23 0.58 0.25 85 1002.5
20240518112238 17 169 4.8 11.3 0.23 0.58 0.25 85 1002.4
20240518111740 17 171 6.4 12.9 0.23 0.58 0.25 85 1002.3
20240518111236 17 175 6.4 12.9 0.23 0.58 0.25 85 1002.4
20240518111008 17 185 6.4 12.9 0.23 0.58 0.25 85 1002.5
20240518110237 17 168 6.4 14.5 0.23 0.58 0.25 85 1002.5
20240518110009 17 144 8.0 19.3 0.23 0.58 0.25 84 1002.7
20240518105236 17 131 8.0 19.3 0.20 0.56 0.25 83 1002.7
20240518105009 18 194 6.4 19.3 0.08 0.41 0.08 81 1003.1
20240518104236 18 192 4.8 19.3 0.05 0.38 0.05 78 1002.7
20240518104009 18 150 4.8 14.5 0.03 0.36 0.03 75 1002.4
20240518103236 19 189 6.4 14.5 0.03 0.36 0.03 72 1002.5
20240518102735 19 212 8.0 16.1 0.03 0.36 0.03 72 1002.8
20240518102237 19 207 8.0 22.5 0.03 0.36 0.03 72 1002.1
20240518101737 18 187 6.4 22.5 0.03 0.36 0.03 73 1002.0
20240518101236 18 163 6.4 20.9 0.03 0.36 0.03 74 1002.2
20240518100734 18 161 4.8 20.9 0.03 0.36 0.03 75 1002.1
20240518100235 18 184 4.8 14.5 0.03 0.36 0.03 75 1002.4
20240518095734 18 168 4.8 14.5 0.03 0.36 0.03 74 1002.4
20240518095235 19 180 4.8 11.3 0.03 0.36 0.03 73 1002.4
20240518094734 19 192 4.8 12.9 0.00 0.33 0.00 72 1002.2
20240518094234 20 155 4.8 12.9 0.00 0.33 0.00 70 1002.3
20240518093734 20 193 4.8 12.9 0.00 0.33 0.00 67 1002.3
20240518093235 20 161 4.8 17.7 0.00 0.33 0.00 67 1002.1
20240518092734 20 163 6.4 17.7 0.00 0.33 0.00 66 1002.2
20240518092234 20 186 6.4 14.5 0.00 0.33 0.00 66 1002.2
20240518091734 20 162 4.8 14.5 0.00 0.33 0.00 65 1002.2
20240518091233 20 114 4.8 11.3 0.00 0.33 0.00 64 1002.1
20240518090733 21 190 6.4 20.9 0.00 0.33 0.00 63 1002.1
20240518090232 21 180 6.4 20.9 0.00 0.33 0.00 62 1002.1
20240518085733 21 179 6.4 17.7 0.00 0.33 0.00 61 1002.1
20240518085238 21 186 6.4 24.1 0.00 0.33 0.00 59 1002.0
20240518085234 21 177 6.4 19.3 0.00 0.33 0.00 60 1002.0
20240518084233 21 188 6.4 24.1 0.00 0.33 0.00 60 1002.1
20240518083732 21 202 4.8 14.5 0.00 0.33 0.00 60 1002.2
20240518083230 21 188 4.8 14.5 0.00 0.33 0.00 61 1002.2
20240518083002 21 170 3.2 12.9 0.00 0.33 0.00 61 1002.1
20240518082503 21 205 4.8 11.3 0.00 0.33 0.00 61 1002.1
20240518081728 21 186 4.8 11.3 0.00 0.33 0.00 62 1002.2
20240518081228 21 209 4.8 11.3 0.00 0.33 0.00 63 1002.2
20240518080729 21 197 4.8 12.9 0.00 0.33 0.00 65 1002.1
20240518080229 20 166 4.8 12.9 0.00 0.33 0.00 67 1002.2
20240518075726 20 190 3.2 9.7 0.00 0.33 0.00 68 1002.2
20240518075457 20 168 3.2 8.0 0.00 0.33 0.00 68 1002.3
20240518074723 20 180 3.2 12.9 0.00 0.33 0.00 68 1002.3
20240518074224 20 165 3.2 12.9 0.00 0.33 0.00 67 1002.3
20240518073725 21 222 4.8 17.7 0.00 0.33 0.00 66 1002.4
20240518073225 21 224 6.4 17.7 0.00 0.33 0.00 65 1002.4
20240518072955 20 191 6.4 14.5 0.00 0.33 0.00 65 1002.3
20240518072224 20 188 4.8 14.5 0.00 0.33 0.00 67 1002.1
20240518071725 20 182 3.2 11.3 0.00 0.33 0.00 68 1002.1
20240518071223 20 201 4.8 12.9 0.00 0.33 0.00 69 1001.9
20240518070725 20 182 4.8 12.9 0.00 0.33 0.00 68 1002.0
20240518070222 19 184 4.8 12.9 0.00 0.33 0.00 70 1002.1
20240518065724 19 189 3.2 8.0 0.00 0.33 0.00 70 1002.2
20240518065220 19 207 3.2 9.7 0.00 0.33 0.00 71 1002.1
20240518064721 19 181 4.8 11.3 0.00 0.33 0.00 71 1002.2
20240518064220 19 200 4.8 11.3 0.00 0.33 0.00 71 1002.2
20240518063949 19 159 4.8 9.7 0.00 0.33 0.00 71 1002.2
20240518063449 20 167 4.8 14.5 0.00 0.33 0.00 70 1002.3
20240518062717 20 172 4.8 14.5 0.00 0.33 0.00 70 1002.2
20240518062216 20 120 4.8 12.9 0.00 0.33 0.00 69 1002.2
20240518061717 20 182 4.8 12.9 0.00 0.33 0.00 69 1002.1
20240518061213 20 179 4.8 12.9 0.00 0.33 0.00 69 1002.2
20240518060714 20 186 4.8 11.3 0.00 0.33 0.00 68 1002.3
20240518060447 20 186 4.8 11.3 0.00 0.33 0.00 68 1002.2
20240518055714 20 206 4.8 12.9 0.00 0.33 0.00 68 1002.2
20240518055215 20 183 4.8 14.5 0.00 0.33 0.00 67 1002.3
20240518054714 20 204 4.8 14.5 0.00 0.33 0.00 67 1002.3
20240518054213 20 167 6.4 22.5 0.00 0.33 0.00 66 1002.2
20240518053716 20 196 6.4 22.5 0.00 0.33 0.00 66 1002.3
20240518053214 20 151 6.4 16.1 0.00 0.33 0.00 67 1002.3
20240518052946 20 178 4.8 14.5 0.00 0.33 0.00 67 1002.3
20240518052211 20 188 4.8 14.5 0.00 0.33 0.00 67 1002.3
20240518051711 20 167 4.8 16.1 0.00 0.33 0.00 67 1002.3
20240518051443 20 183 4.8 16.1 0.00 0.33 0.00 68 1002.3
20240518050712 20 198 4.8 16.1 0.00 0.33 0.00 70 1002.3
20240518050213 20 219 4.8 11.3 0.00 0.33 0.00 72 1002.3
20240518045713 19 207 3.2 11.3 0.00 0.33 0.33 73 1002.2
20240518045211 19 209 3.2 11.3 0.00 0.33 0.33 74 1002.3
20240518044711 19 188 4.8 14.5 0.00 0.33 0.33 75 1002.3
20240518044210 19 181 4.8 14.5 0.00 0.33 0.33 76 1002.3
20240518043710 18 172 4.8 14.5 0.00 0.33 0.33 77 1002.4
20240518043209 18 214 4.8 14.5 0.00 0.33 0.33 79 1002.4
20240518042708 18 202 4.8 9.7 0.00 0.33 0.33 80 1002.5
20240518042210 18 182 4.8 11.3 0.00 0.33 0.33 80 1002.5
20240518041709 18 190 4.8 12.9 0.00 0.33 0.33 79 1002.4
20240518041213 20 180 4.8 17.7 0.00 0.33 0.33 74 1002.3
20240518041209 19 206 6.4 17.7 0.00 0.33 0.33 77 1002.3
20240518040208 20 181 3.2 16.1 0.00 0.33 0.33 72 1002.5
20240518035940 20 146 4.8 12.9 0.00 0.33 0.33 72 1002.6
20240518035208 19 162 4.8 12.9 0.00 0.33 0.33 72 1002.5
20240518034708 19 186 3.2 11.3 0.00 0.33 0.33 73 1002.7
20240518034211 19 182 4.8 11.3 0.00 0.33 0.33 73 1002.6
20240518033940 19 184 4.8 11.3 0.00 0.33 0.33 74 1002.6
20240518033439 19 161 4.8 11.3 0.00 0.33 0.33 75 1002.5
20240518032706 18 171 3.2 8.0 0.00 0.33 0.33 76 1002.6
20240518032206 18 183 3.2 8.0 0.00 0.33 0.33 77 1002.6
20240518031939 18 176 4.8 14.5 0.00 0.33 0.33 78 1002.7
20240518031207 18 157 4.8 14.5 0.00 0.33 0.33 78 1002.8
20240518030707 18 157 3.2 9.7 0.00 0.33 0.33 78 1002.8
20240518030208 18 170 4.8 11.3 0.00 0.33 0.33 79 1002.9
20240518025939 18 144 4.8 11.3 0.00 0.33 0.33 78 1003.0
20240518025208 18 179 4.8 11.3 0.00 0.33 0.33 78 1002.8
20240518024705 18 190 4.8 12.9 0.00 0.33 0.33 78 1002.8
20240518024205 18 191 4.8 19.3 0.00 0.33 0.33 77 1003.0
20240518023704 18 199 4.8 19.3 0.00 0.33 0.33 77 1003.1
20240518023204 18 190 4.8 14.5 0.00 0.33 0.33 78 1002.9
20240518022705 18 164 4.8 16.1 0.00 0.33 0.33 79 1003.0
20240518022205 18 205 4.8 16.1 0.00 0.33 0.33 79 1003.1
20240518021704 18 195 4.8 17.7 0.00 0.33 0.33 80 1003.1
20240518021204 18 200 4.8 17.7 0.00 0.33 0.33 80 1003.0
20240518020703 19 217 6.4 14.5 0.00 0.33 0.33 79 1002.8
20240518020204 19 202 8.0 19.3 0.00 0.33 0.33 78 1002.7
20240518015702 19 205 6.4 16.1 0.00 0.33 0.33 77 1002.6
20240518015203 19 186 6.4 12.9 0.00 0.33 0.33 76 1002.7
20240518014703 19 202 6.4 16.1 0.00 0.33 0.33 75 1002.8
20240518014203 19 220 6.4 16.1 0.03 0.33 0.33 76 1002.6
20240518013711 18 199 3.2 9.7 0.10 0.33 0.33 81 1002.9
20240518013702 19 258 4.8 12.9 0.05 0.33 0.33 77 1002.9
20240518013203 18 194 4.8 11.3 0.08 0.33 0.33 80 1002.9
20240518012433 18 204 3.2 9.7 0.10 0.33 0.33 81 1003.3
20240518011701 18 190 3.2 11.3 0.10 0.33 0.33 81 1003.5
20240518011203 18 144 4.8 19.3 0.13 0.33 0.33 81 1003.5
20240518010703 18 190 4.8 19.3 0.15 0.33 0.33 81 1003.8
20240518010201 18 200 4.8 14.5 0.15 0.33 0.33 82 1003.7
20240518005704 18 189 4.8 9.7 0.28 0.33 0.33 82 1003.7
20240518005200 18 198 6.4 14.5 0.30 0.33 0.33 81 1003.0
20240518004701 18 150 9.7 27.4 0.30 0.33 0.33 80 1002.7
20240518004157 17 200 11.3 30.6 0.28 0.30 0.30 80 1001.5
20240518003658 18 153 6.4 30.6 0.25 0.28 0.28 81 1001.2
20240518003159 18 190 3.2 14.5 0.23 0.25 0.25 82 1002.7
20240518002656 18 225 1.6 14.5 0.20 0.23 0.23 83 1003.5
20240518002157 18 286 1.6 4.8 0.20 0.23 0.23 83 1003.8
20240518001928 19 289 1.6 3.2 0.20 0.23 0.23 82 1003.8
20240518001154 19 289 1.6 4.8 0.18 0.20 0.20 78 1003.8
20240518000652 20 289 1.6 8.0 0.15 0.18 0.18 75 1003.9
20240518000153 21 297 3.2 11.3 0.15 0.18 0.18 71 1003.7
20240517235651 22 298 3.2 11.3 0.03 0.05 0.08 62 1003.6
20240517235151 24 240 1.6 9.7 0.00 0.03 0.03 53 1002.9
20240517234653 24 271 1.6 6.4 0.00 0.03 0.03 51 1002.4
20240517234542 25 223 3.2 9.7 0.00 0.03 0.03 46 1002.0
20240517234430 25 271 3.2 8.0 0.00 0.03 0.03 48 1002.1
20240517233152 26 292 1.6 9.7 0.00 0.03 0.03 43 1001.8
20240517232658 27 225 3.2 11.3 0.00 0.03 0.03 39 1001.5
20240517232653 26 253 3.2 9.7 0.00 0.03 0.03 42 1001.6
20240517231654 27 261 4.8 11.3 0.00 0.03 0.03 39 1001.3
20240517231153 27 217 4.8 16.1 0.00 0.03 0.03 38 1001.2
20240517230651 27 243 4.8 19.3 0.00 0.03 0.03 38 1001.2
20240517230153 27 203 4.8 19.3 0.00 0.03 0.03 38 1001.2
20240517225657 27 153 4.8 12.9 0.00 0.03 0.03 39 1000.9
20240517225652 27 209 4.8 12.9 0.00 0.03 0.03 38 1001.0
20240517224651 27 171 4.8 12.9 0.00 0.03 0.03 38 1000.7
20240517224153 27 166 4.8 12.9 0.00 0.03 0.03 37 1000.6
20240517223651 27 195 4.8 12.9 0.03 0.03 0.03 39 1000.6
20240517223152 27 173 4.8 17.7 0.03 0.03 0.03 40 1000.9
20240517222652 27 173 4.8 17.7 0.03 0.03 0.03 40 1000.7
20240517222425 28 224 3.2 9.7 0.03 0.03 0.03 41 1001.0
20240517221653 28 193 3.2 9.7 0.03 0.03 0.03 41 1001.2
20240517221152 28 242 3.2 9.7 0.03 0.03 0.03 42 1001.2
20240517220652 27 259 3.2 9.7 0.03 0.03 0.03 44 1001.1
20240517220151 27 163 1.6 8.0 0.03 0.03 0.03 48 1001.2
20240517215649 26 202 1.6 6.4 0.03 0.03 0.03 47 1001.2
20240517215150 27 202 3.2 6.4 0.03 0.03 0.03 47 1001.3
20240517214651 27 198 3.2 9.7 0.03 0.03 0.03 46 1001.4
20240517214151 28 203 4.8 14.5 0.03 0.03 0.03 48 1001.6
20240517213921 28 208 4.8 14.5 0.00 0.00 0.00 38 1001.6
20240517213149 28 224 3.2 16.1 0.00 0.00 0.00 38 1001.7
20240517212650 28 198 3.2 16.1 0.00 0.00 0.00 37 1001.7
20240517212152 28 221 3.2 9.7 0.00 0.00 0.00 40 1001.7
20240517211650 28 189 4.8 9.7 0.00 0.00 0.00 38 1001.7
20240517211149 28 197 6.4 14.5 0.00 0.00 0.00 38 1001.7
20240517210651 28 198 4.8 16.1 0.00 0.00 0.00 39 1001.7
20240517210149 28 220 4.8 16.1 0.00 0.00 0.00 39 1001.7
20240517205647 28 229 4.8 11.3 0.00 0.00 0.00 41 1001.7
20240517205148 28 234 4.8 11.3 0.00 0.00 0.00 39 1001.6
20240517204647 28 232 4.8 11.3 0.00 0.00 0.00 40 1001.7